[[{"header":{"parameterUnit":"m.s-1","parameterCategory":2,"la1":30.2992,"la2":30.254,"lo1":-89.0895,"lo2":-89.0443,"dy":0.0025,"dx":0.0025,"nx":19,"ny":19,"refTime":"2026-04-11T03:00:00:Z","depth":"0","parameterNumber":2,"parameterNumberName":"U-component_of_CURRENTS"},"data":[0,0,0,0.1294,0.1291,0.1219,0.1219,0.1339,0.134,0,0,0,0,0,0,0,0,0,0,0,0.1339,0.1338,0.1294,0.1291,0.1219,0.1219,0.1338,0.134,0,0,0,0,0,0,0,0,0,0,0,0.134,0.1338,0.1337,0.129,0.1219,0.122,0.1338,0.1349,0,0,0,0,0,0,0,0,0,0,0.1396,0.1399,0.1339,0.1337,0.1289,0.1219,0.122,0.1347,0.1348,0.1419,0,0.1389,0,0.1346,0.1349,0.135,0,0,0,0.1328,0.1398,0.1363,0.1337,0.1288,0.1219,0.1262,0.1346,0.1348,0.1421,0.139,0.1392,0.1348,0.135,0.1351,0.1494,0.1495,0,0,0.1332,0.1352,0.1361,0.1362,0.125,0.1264,0.1259,0.1345,0.1353,0.139,0.1394,0.135,0.1351,0.1352,0.1494,0.1494,0,0,0,0.1318,0.1355,0.1315,0.136,0.1318,0.1261,0.1256,0.135,0.133,0.1395,0.1352,0.1352,0.1353,0.1493,0.1494,0.1485,0,0,0,0.1322,0.1343,0.1316,0.1331,0.1314,0.1303,0.1259,0.1325,0.1331,0.1351,0.1352,0.1355,0.1492,0.1493,0.1484,0.1481,0,0,0,0.1346,0.1346,0.1327,0.1332,0.1278,0.1299,0.1286,0.1325,0.1305,0.135,0.1355,0.1492,0.1493,0.1483,0.148,0.148,0,0,0,0.1386,0.132,0.1328,0.1268,0.1278,0.1269,0.1285,0.13,0.1337,0.1352,0.1492,0.1494,0.1483,0.1479,0.1479,0.1477,0.1479,0,0,0.1316,0.1313,0.1281,0.1283,0.1261,0.1283,0.1315,0.1362,0.1387,0.1485,0.1486,0.1484,0.148,0.148,0.1549,0.1549,0,0,0,0.1268,0.1248,0.1246,0.1235,0.1246,0.1308,0.1343,0.1374,0.144,0.1402,0.1512,0.151,0.151,0.1508,0.1509,0.1203,0.1499,0.1499,0.1499,0.119,0.1208,0.1195,0.1233,0.1265,0.1339,0.1387,0.1448,0.1472,0.15,0.1524,0.1547,0.1548,0.1547,0.1232,0.1548,0.1548,0.1548,0.1548,0.1117,0.1113,0.1192,0.1187,0.1288,0.1343,0.1454,0.1477,0.1543,0.1551,0.155,0.1526,0.1547,0.1211,0.1548,0.1548,0.1548,0.1548,0.1548,0.1072,0.1079,0.1096,0.116,0.1245,0.1351,0.1427,0.1495,0.1533,0.1549,0.1547,0.1547,0.1231,0.1545,0.1545,0.1545,0.1545,0.1545,0.1545,0.1019,0.1043,0.1075,0.1144,0.1199,0.1291,0.1415,0.1461,0.1524,0.1546,0.1546,0.1205,0.1547,0.1524,0.1545,0.1545,0.1545,0.1545,0.1545,0.0958,0.0993,0.1041,0.109,0.1208,0.1261,0.1371,0.1463,0.1513,0.1532,0.1168,0.1546,0.1547,0.1547,0.1526,0.1546,0.1546,0.1546,0.1546,0.0937,0.0952,0.1043,0.1118,0.1199,0.1262,0.1286,0.1314,0.1194,0.1043,0.0991,0.0936,0.095,0.0911,0.0925,0.089,0.0748,0.0746,0.0745,0.0935,0.0976,0.1036,0.1118,0.1204,0.1242,0.1193,0.1023,0.0795,0.0677,0.0554,0.0588,0.0472,0.0519,0.0437,0.0481,0.0418,0,0]},{"header":{"parameterUnit":"m.s-1","parameterCategory":2,"la1":30.2992,"la2":30.254,"lo1":-89.0895,"lo2":-89.0443,"dy":0.0025,"dx":0.0025,"nx":19,"ny":19,"refTime":"2026-04-11T03:00:00:Z","depth":"0","parameterNumber":3,"parameterNumberName":"V-component_of_CURRENTS"},"data":[0,0,0,-0.0783,-0.0776,-0.0528,-0.0528,-0.0812,-0.0815,0,0,0,0,0,0,0,0,0,0,0,-0.0912,-0.0909,-0.0784,-0.0775,-0.0528,-0.0528,-0.0811,-0.0815,0,0,0,0,0,0,0,0,0,0,0,-0.0913,-0.091,-0.0907,-0.0774,-0.0528,-0.0528,-0.081,-0.0864,0,0,0,0,0,0,0,0,0,0,-0.1036,-0.1051,-0.0911,-0.0907,-0.0772,-0.0528,-0.0528,-0.0861,-0.0861,-0.1074,0,-0.0996,0,-0.0878,-0.0842,-0.0843,0,0,0,-0.0842,-0.105,-0.0957,-0.0906,-0.0768,-0.0529,-0.0659,-0.0856,-0.0858,-0.1077,-0.0998,-0.1003,-0.0882,-0.0844,-0.0846,-0.1087,-0.1087,0,0,-0.0856,-0.0918,-0.0953,-0.0955,-0.0668,-0.0666,-0.065,-0.0851,-0.087,-0.0999,-0.1006,-0.0887,-0.0847,-0.085,-0.1088,-0.1087,0,0,0,-0.085,-0.0928,-0.0819,-0.095,-0.0836,-0.0657,-0.0639,-0.0861,-0.0814,-0.1007,-0.089,-0.0849,-0.0854,-0.1088,-0.1088,-0.0991,0,0,0,-0.0861,-0.0917,-0.0825,-0.0867,-0.0827,-0.0761,-0.0646,-0.0801,-0.0815,-0.0889,-0.0849,-0.0858,-0.1088,-0.1088,-0.0995,-0.0974,0,0,0,-0.0929,-0.0925,-0.0876,-0.087,-0.072,-0.0751,-0.0716,-0.0799,-0.0746,-0.0843,-0.0859,-0.1089,-0.1088,-0.0998,-0.0979,-0.0958,0,0,0,-0.1034,-0.0912,-0.0878,-0.0734,-0.0722,-0.0633,-0.0712,-0.0703,-0.0775,-0.0851,-0.1088,-0.1088,-0.0999,-0.0982,-0.096,-0.0811,-0.0787,0,0,-0.0928,-0.0903,-0.0815,-0.0773,-0.0647,-0.0674,-0.0655,-0.0773,-0.0847,-0.108,-0.108,-0.0994,-0.0979,-0.0958,-0.0768,-0.0745,0,0,0,-0.0811,-0.075,-0.071,-0.062,-0.0583,-0.0632,-0.07,-0.0737,-0.084,-0.0862,-0.1006,-0.1001,-0.099,-0.0906,-0.0887,-0.0757,-0.1084,-0.1084,-0.1084,-0.075,-0.0696,-0.0602,-0.0569,-0.0574,-0.0632,-0.067,-0.0758,-0.0854,-0.0852,-0.0929,-0.0861,-0.0769,-0.0754,-0.0621,-0.0928,-0.0927,-0.0927,-0.0927,-0.06,-0.052,-0.0555,-0.045,-0.0549,-0.0591,-0.0702,-0.0733,-0.0803,-0.0853,-0.0846,-0.0818,-0.0727,-0.0594,-0.0921,-0.0922,-0.0923,-0.0923,-0.0924,-0.0527,-0.0493,-0.0456,-0.0417,-0.0455,-0.0552,-0.0579,-0.0667,-0.0726,-0.0727,-0.0668,-0.0668,-0.0547,-0.0725,-0.0724,-0.0724,-0.0724,-0.0724,-0.0724,-0.0471,-0.044,-0.0409,-0.0379,-0.0382,-0.0414,-0.0515,-0.0538,-0.0555,-0.0572,-0.0571,-0.049,-0.0801,-0.0805,-0.072,-0.0721,-0.0721,-0.0722,-0.0722,-0.0333,-0.038,-0.0327,-0.0321,-0.032,-0.0285,-0.0363,-0.0349,-0.0387,-0.0351,-0.022,-0.0492,-0.0519,-0.0533,-0.0532,-0.0382,-0.0382,-0.0382,-0.0382,-0.0298,-0.0297,-0.0284,-0.0276,-0.0257,-0.024,-0.0144,-0.011,-0.0047,0.0044,-0.0008,0.0022,0.0002,0.0004,-0.0022,-0.0012,0.0266,0.0267,0.0267,-0.0262,-0.0269,-0.0252,-0.0253,-0.023,-0.0165,-0.0018,0.0138,0.0284,0.03,0.0147,0.012,0.0162,0.012,0.0113,0.0066,0.0076,0,0]}],[{"header":{"parameterUnit":"m.s-1","parameterCategory":2,"la1":30.2992,"la2":30.254,"lo1":-89.0895,"lo2":-89.0443,"dy":0.0025,"dx":0.0025,"nx":19,"ny":19,"refTime":"2026-04-11T03:00:00:Z","depth":"2","parameterNumber":2,"parameterNumberName":"U-component_of_CURRENTS"},"data":[0,0,0,0.0984,0.0985,0.1057,0.1057,0.1218,0.122,0,0,0,0,0,0,0,0,0,0,0,0.0966,0.0966,0.0984,0.0985,0.1057,0.1057,0.1218,0.122,0,0,0,0,0,0,0,0,0,0,0,0.0965,0.0966,0.0967,0.0986,0.1057,0.1057,0.1217,0.1146,0,0,0,0,0,0,0,0,0,0,0.1068,0.1041,0.0966,0.0967,0.0986,0.1057,0.1057,0.1142,0.1151,0.1206,0,0.1223,0,0.1225,0.1232,0.1233,0,0,0,0.0986,0.1033,0.1053,0.0967,0.0987,0.1056,0.1025,0.1147,0.1156,0.1217,0.1225,0.123,0.1228,0.1233,0.1234,0.143,0.143,0,0,0.0982,0.098,0.1046,0.106,0.1016,0.1022,0.1027,0.1152,0.1168,0.1225,0.1234,0.123,0.1235,0.1236,0.1429,0.143,0,0,0,0.097,0.0977,0.0993,0.1054,0.1061,0.1024,0.103,0.1162,0.1168,0.1235,0.1232,0.1236,0.1238,0.1428,0.1429,0.141,0,0,0,0.0968,0.097,0.0991,0.0991,0.1058,0.1103,0.1038,0.1159,0.1173,0.1231,0.1236,0.124,0.1427,0.1429,0.1408,0.1401,0,0,0,0.0961,0.0969,0.098,0.099,0.102,0.11,0.1113,0.1162,0.1172,0.1233,0.124,0.1427,0.1428,0.1407,0.1399,0.14,0,0,0,0.0951,0.0969,0.0981,0.1002,0.1019,0.109,0.1112,0.1177,0.123,0.1237,0.1427,0.1429,0.1407,0.1399,0.1399,0.1241,0.1232,0,0,0.0962,0.097,0.0981,0.0992,0.1034,0.1079,0.1151,0.1226,0.1278,0.1389,0.1394,0.1409,0.1399,0.14,0.1346,0.1333,0,0,0,0.0976,0.0985,0.0998,0.103,0.1083,0.1134,0.1211,0.1266,0.1364,0.1318,0.1452,0.1447,0.1447,0.1352,0.1343,0.1438,0.1437,0.1437,0.1437,0.0969,0.0993,0.1017,0.1051,0.1104,0.1202,0.1258,0.1358,0.1398,0.1445,0.1462,0.1494,0.1395,0.1385,0.1499,0.1499,0.1499,0.1499,0.1499,0.0974,0.0985,0.103,0.1063,0.1129,0.1214,0.1329,0.1372,0.1474,0.1497,0.1497,0.1376,0.1373,0.1498,0.1498,0.1498,0.1498,0.1498,0.1498,0.0957,0.0968,0.0994,0.1055,0.1131,0.1213,0.1297,0.139,0.146,0.1483,0.1384,0.1382,0.1454,0.1482,0.1482,0.1482,0.1482,0.1482,0.1482,0.0931,0.0958,0.0985,0.1042,0.108,0.1158,0.1287,0.134,0.136,0.1362,0.136,0.1488,0.1489,0.1455,0.1482,0.1482,0.1482,0.1482,0.1482,0.0924,0.0934,0.0965,0.0994,0.1067,0.106,0.1172,0.1186,0.1251,0.122,0.1289,0.1294,0.1283,0.1289,0.1252,0.1225,0.1225,0.1225,0.1225,0.0915,0.0922,0.0955,0.0978,0.1007,0.102,0.0921,0.0831,0.0897,0.0843,0.0859,0.0805,0.0824,0.0786,0.0804,0.0757,0.06,0.0599,0.0598,0.0922,0.0925,0.0938,0.0954,0.0969,0.094,0.0717,0.0385,0.0323,0.0571,0.0727,0.1187,0.1151,0.1164,0.1144,0.1158,0.1098,0,0]},{"header":{"parameterUnit":"m.s-1","parameterCategory":2,"la1":30.2992,"la2":30.254,"lo1":-89.0895,"lo2":-89.0443,"dy":0.0025,"dx":0.0025,"nx":19,"ny":19,"refTime":"2026-04-11T03:00:00:Z","depth":"2","parameterNumber":3,"parameterNumberName":"V-component_of_CURRENTS"},"data":[0,0,0,0.0161,0.016,0.0133,0.0133,0.0248,0.025,0,0,0,0,0,0,0,0,0,0,0,0.0165,0.0164,0.0161,0.016,0.0133,0.0133,0.0248,0.025,0,0,0,0,0,0,0,0,0,0,0,0.0165,0.0164,0.0163,0.0159,0.0133,0.0133,0.0248,0.0235,0,0,0,0,0,0,0,0,0,0,0.0244,0.0229,0.0164,0.0163,0.0159,0.0133,0.0133,0.0233,0.0236,0.0298,0,0.0271,0,0.0261,0.0259,0.026,0,0,0,0.0177,0.0226,0.0207,0.0163,0.0159,0.0133,0.015,0.0234,0.0237,0.0302,0.0272,0.0275,0.0263,0.026,0.0261,0.0382,0.0382,0,0,0.0179,0.0182,0.0204,0.0208,0.0126,0.0151,0.0149,0.0234,0.0238,0.0272,0.0278,0.0265,0.0261,0.0262,0.0382,0.0382,0,0,0,0.0171,0.0183,0.0159,0.0205,0.0187,0.0149,0.0147,0.0234,0.0221,0.0279,0.0266,0.0262,0.0264,0.0382,0.0382,0.0375,0,0,0,0.0173,0.0177,0.0159,0.0165,0.0183,0.0192,0.0146,0.0215,0.0224,0.0266,0.0262,0.0265,0.0381,0.0382,0.0374,0.0403,0,0,0,0.0171,0.0178,0.0163,0.0164,0.0143,0.0189,0.0182,0.0216,0.0218,0.026,0.0265,0.0381,0.0382,0.0374,0.0401,0.0438,0,0,0,0.0193,0.016,0.0162,0.0144,0.0143,0.0178,0.0181,0.0211,0.0246,0.0263,0.0381,0.0382,0.0374,0.04,0.0436,0.0555,0.0571,0,0,0.0165,0.0157,0.0151,0.0152,0.0174,0.0184,0.0247,0.0276,0.028,0.0367,0.0368,0.0374,0.0401,0.0437,0.0591,0.0606,0,0,0,0.0153,0.0146,0.016,0.0166,0.0196,0.0279,0.0301,0.0301,0.033,0.0297,0.0389,0.0408,0.043,0.0499,0.0511,0.0385,0.0385,0.0385,0.0385,0.0148,0.0156,0.0176,0.0218,0.0265,0.0334,0.038,0.0393,0.0381,0.0377,0.0411,0.0451,0.0524,0.0534,0.0406,0.0406,0.0406,0.0405,0.0405,0.0143,0.0156,0.0205,0.0218,0.0316,0.0369,0.0475,0.0458,0.0477,0.0436,0.0457,0.05,0.0547,0.0405,0.0405,0.0405,0.0405,0.0405,0.0405,0.0151,0.0157,0.0165,0.0221,0.0294,0.0401,0.0501,0.0526,0.0501,0.0504,0.0581,0.0582,0.0463,0.0494,0.0494,0.0495,0.0495,0.0495,0.0495,0.0149,0.0163,0.0191,0.0241,0.0289,0.039,0.0513,0.0569,0.063,0.0618,0.0619,0.0482,0.0479,0.047,0.05,0.0499,0.0498,0.0498,0.0498,0.0142,0.016,0.0211,0.0256,0.0366,0.0492,0.0604,0.0767,0.0779,0.0823,0.0699,0.0693,0.0719,0.0711,0.0709,0.0798,0.0798,0.0798,0.0798,0.0156,0.0162,0.0259,0.0354,0.0465,0.0572,0.0755,0.0869,0.0912,0.0906,0.0901,0.0887,0.0874,0.0906,0.0893,0.0893,0.1031,0.1031,0.1031,0.018,0.0214,0.0291,0.0383,0.0523,0.0649,0.0835,0.0881,0.0901,0.1033,0.0865,0.0829,0.0793,0.0778,0.0814,0.0799,0.0793,0,0]}],[{"header":{"parameterUnit":"m.s-1","parameterCategory":2,"la1":30.2992,"la2":30.254,"lo1":-89.0895,"lo2":-89.0443,"dy":0.0025,"dx":0.0025,"nx":19,"ny":19,"refTime":"2026-04-11T03:00:00:Z","depth":"4","parameterNumber":2,"parameterNumberName":"U-component_of_CURRENTS"},"data":[0,0,0,0.0405,0.0406,0.0407,0.0406,0.0307,0.0306,0,0,0,0,0,0,0,0,0,0,0,0.0394,0.0394,0.0405,0.0406,0.0407,0.0406,0.0307,0.0306,0,0,0,0,0,0,0,0,0,0,0,0.0394,0.0394,0.0395,0.0406,0.0407,0.0406,0.0307,0.0326,0,0,0,0,0,0,0,0,0,0,0.0336,0.0361,0.0394,0.0395,0.0406,0.0407,0.0406,0.0328,0.0325,0.0285,0,0.0296,0,0.0311,0.0299,0.0299,0,0,0,0.0383,0.0364,0.0357,0.0395,0.0406,0.0407,0.04,0.0327,0.0323,0.028,0.0295,0.0292,0.0309,0.0298,0.0298,0.0267,0.0268,0,0,0.0383,0.0395,0.036,0.0356,0.0419,0.04,0.04,0.0326,0.0329,0.0295,0.029,0.0307,0.0298,0.0297,0.0267,0.0268,0,0,0,0.0398,0.0395,0.0392,0.0358,0.0374,0.0401,0.0401,0.0332,0.033,0.029,0.0306,0.0297,0.0296,0.0266,0.0267,0.0311,0,0,0,0.0397,0.0405,0.0392,0.0399,0.0376,0.0371,0.0409,0.0334,0.0327,0.0307,0.0297,0.0295,0.0266,0.0267,0.0309,0.029,0,0,0,0.0392,0.0405,0.0407,0.0399,0.0411,0.0373,0.0366,0.0333,0.0338,0.0299,0.0295,0.0266,0.0267,0.0307,0.0288,0.0306,0,0,0,0.0398,0.041,0.0408,0.0417,0.0411,0.039,0.0367,0.0354,0.0325,0.0297,0.0266,0.0267,0.0306,0.0287,0.0305,0.0187,0,0,0,0.0413,0.0413,0.0413,0.0411,0.0396,0.0387,0.0368,0.0332,0.0327,0.0278,0.0278,0.0309,0.0288,0.0306,0.025,0,0,0,0,0.0417,0.0417,0.0408,0.0405,0.0387,0.0368,0.0344,0.0347,0.0349,0.0321,0.0318,0.0303,0.0313,0.0241,0.0272,0.0272,0.0272,0.0272,0.0272,0.0446,0.0428,0.0416,0.0388,0.0371,0.0356,0.035,0.0354,0.0342,0.0377,0.0347,0.0396,0.0325,0.0376,0.0376,0.0376,0.0377,0.0377,0.0377,0.0447,0.0435,0.0412,0.0397,0.0373,0.0363,0.0351,0.0371,0.0386,0.0388,0.0398,0.0303,0.0381,0.0381,0.038,0.0379,0.0379,0.0379,0.0378,0.0456,0.0445,0.0439,0.041,0.0404,0.0378,0.0361,0.0381,0.0412,0.0426,0.0356,0.0413,0.0399,0.045,0.045,0.045,0.045,0.045,0.045,0.0464,0.0452,0.0435,0.0416,0.0405,0.0386,0.038,0.0361,0.0388,0.0363,0.0438,0.042,0.0417,0.0403,0.0451,0.0451,0.0451,0.0451,0.045,0.0457,0.0452,0.0424,0.0406,0.0362,0.0338,0.0345,0.0287,0.0289,0.0269,0.0331,0.0337,0.03,0.03,0.0279,0.0293,0.0292,0.029,0,0.045,0.0444,0.0388,0.0338,0.0284,0.0281,0.0219,0.0203,0.0227,0.0232,0.0306,0.038,0.0383,0.0344,0.0341,0.0318,0,0,0,0.0428,0.0413,0.0363,0.0303,0.0232,0.0178,0.0192,0.0165,0.0245,0.016,0.0256,0.0265,0.0324,0.0452,0.0408,0.0406,0.0379,0,0]},{"header":{"parameterUnit":"m.s-1","parameterCategory":2,"la1":30.2992,"la2":30.254,"lo1":-89.0895,"lo2":-89.0443,"dy":0.0025,"dx":0.0025,"nx":19,"ny":19,"refTime":"2026-04-11T03:00:00:Z","depth":"4","parameterNumber":3,"parameterNumberName":"V-component_of_CURRENTS"},"data":[0,0,0,0.0413,0.0413,0.0458,0.0459,0.0654,0.0656,0,0,0,0,0,0,0,0,0,0,0,0.0413,0.0413,0.0413,0.0413,0.0458,0.0459,0.0654,0.0656,0,0,0,0,0,0,0,0,0,0,0,0.0413,0.0413,0.0413,0.0413,0.0458,0.0459,0.0653,0.0593,0,0,0,0,0,0,0,0,0,0,0.0536,0.0505,0.0413,0.0412,0.0413,0.0458,0.0459,0.0589,0.0597,0.0662,0,0.0654,0,0.0642,0.0669,0.0669,0,0,0,0.0447,0.0498,0.05,0.0412,0.0413,0.0458,0.0447,0.0593,0.0602,0.0673,0.0656,0.0662,0.0645,0.067,0.0671,0.0841,0.0841,0,0,0.0444,0.044,0.0493,0.0505,0.0409,0.0446,0.0448,0.0597,0.0609,0.0657,0.0666,0.0648,0.0671,0.0673,0.084,0.0841,0,0,0,0.0415,0.0439,0.0435,0.0498,0.0485,0.0446,0.0449,0.0603,0.0598,0.0668,0.065,0.0672,0.0675,0.084,0.084,0.0859,0,0,0,0.0415,0.0418,0.0433,0.0435,0.0481,0.0525,0.0452,0.0588,0.0603,0.0649,0.0673,0.0677,0.0839,0.084,0.0857,0.0855,0,0,0,0.0414,0.0419,0.0416,0.0434,0.0435,0.0521,0.0526,0.0591,0.0592,0.067,0.0677,0.0839,0.084,0.0856,0.0853,0.0873,0,0,0,0.0421,0.0406,0.0416,0.0414,0.0434,0.0496,0.0525,0.0593,0.0658,0.0674,0.0839,0.084,0.0856,0.0852,0.0872,0.0787,0,0,0,0.0403,0.0404,0.0406,0.0414,0.046,0.0493,0.0576,0.0664,0.0696,0.0805,0.0809,0.0858,0.0853,0.0873,0.0842,0,0,0,0,0.0402,0.0405,0.0424,0.0451,0.05,0.058,0.0652,0.0688,0.0779,0.0729,0.0872,0.0868,0.088,0.0828,0.0845,0.0845,0.0845,0.0844,0.0844,0.0384,0.0413,0.0447,0.0501,0.0559,0.0656,0.0716,0.0783,0.0821,0.0853,0.0894,0.0934,0.0881,0.0911,0.0911,0.0912,0.0912,0.0912,0.0912,0.0384,0.0403,0.0477,0.0519,0.0616,0.0701,0.0811,0.0838,0.0918,0.0923,0.0935,0.0864,0.0914,0.0913,0.0913,0.0913,0.0913,0.0913,0.0912,0.0368,0.0384,0.0422,0.0518,0.0622,0.0733,0.0826,0.0895,0.0931,0.0953,0.0912,0.0949,0.0935,0.0973,0.0974,0.0974,0.0974,0.0974,0.0974,0.0336,0.0376,0.0432,0.0527,0.0603,0.071,0.0846,0.0892,0.095,0.092,0.0969,0.0955,0.0953,0.0939,0.0975,0.0975,0.0975,0.0975,0.0975,0.0317,0.0346,0.042,0.0491,0.0645,0.071,0.083,0.0887,0.0921,0.091,0.0901,0.0905,0.0888,0.0888,0.0871,0.0888,0.0887,0.0886,0,0.0314,0.033,0.0442,0.0544,0.0644,0.0727,0.0769,0.0823,0.0853,0.0822,0.0922,0.091,0.0912,0.0893,0.0891,0.087,0,0,0,0.0339,0.0366,0.0443,0.0537,0.0654,0.071,0.0777,0.078,0.0828,0.0848,0.0862,0.0868,0.0957,0.098,0.0962,0.096,0.0936,0,0]}]]